Regional Weather Roundup
Issued by NWS Sterling, VA

Home | Current Version | Previous Version | Text Only | Print | Product List | Glossary Off
Versions: 1 2 3 4 5 6 7 8 9 10 11 12 13 14 15 16 17 18 19 20 21 22 23 24 25 26 27 28 29 30 31 32 33 34 35 36 37 38 39 40 41 42 43 44 45 46 47 48 49 50

000
ASUS41 KLWX 300010
RWRLWX

REGIONAL WEATHER ROUNDUP
NATIONAL WEATHER SERVICE BALTIMORE MD/WASHINGTON DC
800 PM EDT SUN MAR 29 2015

Note: "FAIR" indicates few or no clouds below 12,000 feet
with no significant weather and/or obstructions to visibility.
 TC=TEMPERATURE CELSIUS

 * =Non NWS site. Station does not report precipitation (e.g. rain,
    snow, etc.), thunder, or fog.

DCZ001-MDZ009-015-VAZ040>042-051-053>054-300100-
WASHINGTON METRO

CITY           SKY/WX    TMP DP  RH WIND       PRES   REMARKS
WASHINGTON NAT PTCLDY    44  12  27 S9        30.21F
DULLES         PTCLDY    41   7  24 S6        30.18F
ANDREWS AFB    CLEAR     38  12  34 S6        30.19F
FT BELVOIR     CLEAR     40  11  30 SE3       30.20F
QUANTICO       PTCLDY    45  23  42 S12       30.22F
COLLEGE PARK*  CLEAR     43   5  21 S5        30.20S
LEESBURG*      PTCLDY    45  14  29 S9        30.18F
MANASSAS*      CLEAR     39  12  33 S5        30.19F
GAITHERSBURG*  PTCLDY    37   3  23 SE5       30.21F

$$

MDZ006>007-011-014-300100-
BALTIMORE METRO

CITY           SKY/WX    TMP DP  RH WIND       PRES   REMARKS
BWI AIRPORT    PTCLDY    40   6  24 CALM      30.19S
MARTIN STATE   CLEAR     39  27  60 S10       30.22S
ANNAPOLIS      CLEAR     38  21  50 S12       30.21F

$$

MDZ012-015-019>023-300100-
MARYLAND EASTERN SHORE

CITY           SKY/WX    TMP DP  RH WIND       PRES   REMARKS
OCEAN CITY     CLEAR     36  25  64 S6        30.26F
SALISBURY      CLEAR     34  18  52 S7        30.25F
BAY BRIDGE AP*   N/A     39  16  38 S7        30.22S
CAMBRIDGE*     CLEAR     37  14  38 S7        30.23F
EASTON*        PTCLDY    39  16  38 S6        30.26F

$$

MDZ017>025-300100-
SOUTHERN MARYLAND

CITY           SKY/WX    TMP DP  RH WIND       PRES   REMARKS
PATUXENT RIVER CLEAR     38   9  30 S6        30.22F
ST INIGOES     CLEAR     36  16  44 SE5       30.23F
LEONARDTOWN*   CLEAR     37   9  30 S3        30.24F

$$

MDZ003>005-300100-
NORTH CENTRAL MARYLAND

CITY           SKY/WX    TMP DP  RH WIND       PRES   REMARKS
FREDERICK*     CLEAR     39   1  20 VRB5      30.19F
HAGERSTOWN APT PTCLDY    41   7  24 SE6       30.12F
WESTMINSTER*   PTCLDY    39   0  19 S6        30.15F

$$

MDZ501>502-300100-
WESTERN MARYLAND

CITY           SKY/WX    TMP DP  RH WIND       PRES   REMARKS
OAKLAND*       NOT AVBL
CUMBERLAND*    MOCLDY    45   9  23 CALM      30.12F

$$

VAZ025>031-300100-
SHENANDOAH VALLEY

CITY           SKY/WX    TMP DP  RH WIND       PRES   REMARKS
WINCHESTER*    PTCLDY    43  -6  13 S8        30.13S
FRONT ROYAL*   FAIR      43   9  24 S5        30.13S
LURAY*         FAIR      45  14  29 SW5       30.14S
NEW MARKET*    FAIR      43  10  26 SW3       30.13R
STAUNTON*      MOCLDY    43   6  21 S9        30.16R
WAYNESBORO*    FAIR      41   7  24 S8        30.15S

$$

WVZ021-048>050-054>055-300100-
EASTERN WEST VIRGINIA PANHANDLE

CITY           SKY/WX    TMP DP  RH WIND       PRES   REMARKS
MARTINSBURG    PTCLDY    42   8  24 SE7       30.14F
PETERSBURG*    MOCLDY    44   9  24 SE8       30.09F

$$

VAZ036>039-050-300100-
CENTRAL FOOTHILLS

CITY           SKY/WX    TMP DP  RH WIND       PRES   REMARKS
CHARLOTTESVILL PTCLDY    44   8  23 S10       30.18F
CULPEPER*      PTCLDY    43  10  26 S3        30.18F
ORANGE*        PTCLDY    43   9  24 SE3       30.20F
GORDONSVILLE*  FAIR      42   8  24 S5        30.18F
WARRENTON*     FAIR      42  17  36 SE5       30.17F

$$

VAZ055>057-300100-
NORTH AND CENTRAL PIEDMONT

CITY           SKY/WX    TMP DP  RH WIND       PRES   REMARKS
FREDERICKSBRG* PTCLDY    43  12  28 S7        30.21F
STAFFORD*      PTCLDY    41   1  18 S5        30.25S

$$

NCZ024-NYZ072-PAZ021-071-VAZ022-071-300100-
OTHER REGIONAL OBSERVATIONS

CITY           SKY/WX    TMP DP  RH WIND       PRES   REMARKS
NEW YORK CITY  CLEAR     45   1  16 W6        30.17F
PHILADELPHIA   PTCLDY    42  10  27 SW6       30.19F
PITTSBURGH     CLOUDY    42   8  24 S12       29.99F
ROANOKE        PTCLDY    46   8  21 SE12      30.18F
RICHMOND       MOCLDY    40  14  34 S7        30.24F
RALEIGH        PTCLDY    46  14  27 S5        30.28F

$$

ANZ530>537-300100-
MARINE OBSERVATIONS

STATION/POSITION TIME  TEMP    WIND        PRES
                       AIR SEA DIR/SP/G
                 (UTC) (F)     (DEG/KT/KT) (MB)
THOMAS PT LIGHT  0000                        N/A
BALT KEY BRIDGE  2300   40     120/  8/ 10 1022.7F
COVE POINT       2300   37     170/ 10/ 11 1024.2F
LEWISETTA        2300   41 45              1024.5F
SOLOMONS ISLAND  2300      44                N/A
PINEY POINT      2300          350/  2/  2   N/A

$$



USA.gov is the U.S. government's official web portal to all federal, state and local government web resources and services.